DW7144 Weather Reports


time (UTC)temp
F
wind
direction
speed
knots
gust
knots
rain 1hr
in
rain 24hr
in
rain mn
in
humidity
%
barometer
mb
20260510205403 44 39 0.9 2.6 0.00 0.00 0.00 70 1012.4
20260510204503 44 39 1.7 2.6 0.00 0.00 0.00 70 1012.5
20260510203603 45 39 0.9 2.6 0.00 0.00 0.00 69 1012.5
20260510202703 45 39 1.7 4.3 0.00 0.00 0.00 69 1012.5
20260510201803 46 39 2.6 7.0 0.00 0.00 0.00 67 1012.5
20260510200924 46 38 1.7 7.0 0.00 0.00 0.00 66 1012.6
20260510200003 46 38 2.6 7.8 0.00 0.00 0.00 65 1012.7
20260510195403 47 38 3.5 7.8 0.00 0.00 0.00 65 1012.7
20260510194503 47 39 2.6 6.1 0.00 0.00 0.00 63 1012.7
20260510193603 48 32 4.3 8.7 0.00 0.00 0.00 61 1012.7
20260510192724 48 18 3.5 8.7 0.00 0.00 0.00 61 1012.8
20260510191803 48 43 4.3 9.6 0.00 0.00 0.00 60 1012.8
20260510190924 49 31 5.2 13.0 0.00 0.00 0.00 59 1012.9
20260510190003 49 34 4.3 9.6 0.00 0.00 0.00 59 1012.8
20260510185403 49 44 4.3 9.6 0.00 0.00 0.00 58 1012.8
20260510184503 50 46 5.2 13.0 0.00 0.00 0.00 58 1012.9
20260510183603 50 34 5.2 11.3 0.00 0.00 0.00 58 1012.9
20260510182703 50 52 4.3 10.4 0.00 0.00 0.00 58 1012.8
20260510181803 50 42 5.2 11.3 0.00 0.00 0.00 58 1012.9
20260510180924 51 41 5.2 13.0 0.00 0.00 0.00 57 1012.9
20260510180003 51 23 5.2 10.4 0.00 0.00 0.00 57 1012.8
20260510175403 51 26 5.2 10.4 0.00 0.00 0.00 57 1012.8
20260510174524 51 37 6.1 12.2 0.00 0.00 0.00 56 1012.9
20260510173624 52 54 6.1 13.0 0.00 0.00 0.00 55 1012.9
20260510172703 52 32 5.2 10.4 0.00 0.00 0.00 55 1013.0
20260510171803 52 19 5.2 11.3 0.00 0.00 0.00 55 1013.1
20260510170903 52 37 5.2 12.2 0.00 0.00 0.00 56 1013.1
20260510170003 52 36 6.1 12.2 0.00 0.00 0.00 56 1013.2
20260510165403 52 44 7.0 14.8 0.00 0.00 0.00 56 1013.3
20260510164503 53 42 4.3 10.4 0.00 0.00 0.00 56 1013.3
20260510163603 53 27 5.2 12.2 0.00 0.00 0.00 56 1013.5
20260510162703 53 42 6.1 13.0 0.00 0.00 0.00 54 1013.6
20260510161803 54 40 6.1 13.9 0.00 0.00 0.00 54 1013.5
20260510160903 54 34 6.1 13.0 0.00 0.00 0.00 54 1013.7